TimeCST,TemperatureF,Dew PointF,Humidity,Sea Level PressureIn,VisibilityMPH,Wind Direction,Wind SpeedMPH,Gust SpeedMPH,PrecipitationIn,Events,Conditions,WindDirDegrees,DateUTC
12:54 AM,46.0,28.9,51,30.27,10.0,SSE,9.2,-,N/A,,Mostly Cloudy,150,2012-11-18 06:54:00
1:54 AM,46.0,28.9,51,30.27,10.0,SSE,8.1,-,N/A,,Overcast,150,2012-11-18 07:54:00
2:54 AM,46.0,28.9,51,30.27,10.0,SSE,9.2,-,N/A,,Overcast,160,2012-11-18 08:54:00
3:54 AM,46.9,28.9,50,30.26,10.0,SSE,8.1,-,N/A,,Overcast,160,2012-11-18 09:54:00
4:54 AM,44.1,28.9,55,30.25,10.0,SSE,9.2,-,N/A,,Partly Cloudy,150,2012-11-18 10:54:00
5:54 AM,42.1,28.9,60,30.25,10.0,SSE,10.4,-,N/A,,Partly Cloudy,160,2012-11-18 11:54:00
6:54 AM,41.0,28.9,62,30.25,10.0,SSE,10.4,-,N/A,,Partly Cloudy,160,2012-11-18 12:54:00
7:54 AM,43.0,30.0,60,30.24,10.0,SSE,12.7,-,N/A,,Overcast,160,2012-11-18 13:54:00
8:54 AM,46.9,30.9,54,30.24,10.0,South,9.2,-,N/A,,Overcast,170,2012-11-18 14:54:00
9:54 AM,52.0,30.9,45,30.23,10.0,South,12.7,-,N/A,,Mostly Cloudy,180,2012-11-18 15:54:00
10:54 AM,55.9,30.9,39,30.23,10.0,South,15.0,-,N/A,,Mostly Cloudy,190,2012-11-18 16:54:00
11:54 AM,57.9,32.0,37,30.20,10.0,South,16.1,-,N/A,,Mostly Cloudy,190,2012-11-18 17:54:00
12:54 PM,57.9,32.0,37,30.19,10.0,South,13.8,-,N/A,,Mostly Cloudy,180,2012-11-18 18:54:00
1:54 PM,59.0,33.1,38,30.17,10.0,South,13.8,-,N/A,,Scattered Clouds,170,2012-11-18 19:54:00
2:54 PM,59.0,34.0,39,30.16,10.0,SSE,16.1,20.7,N/A,,Overcast,160,2012-11-18 20:54:00
3:54 PM,57.9,34.0,41,30.17,10.0,SSE,13.8,-,N/A,,Overcast,150,2012-11-18 21:54:00
4:54 PM,55.9,33.1,42,30.17,10.0,SSE,13.8,-,N/A,,Overcast,150,2012-11-18 22:54:00
5:54 PM,55.0,34.0,45,30.17,10.0,SE,13.8,-,N/A,,Overcast,140,2012-11-18 23:54:00
6:54 PM,55.0,33.1,43,30.18,10.0,SE,13.8,-,N/A,,Overcast,140,2012-11-19 00:54:00
7:54 PM,54.0,33.1,45,30.17,10.0,SSE,12.7,-,N/A,,Overcast,150,2012-11-19 01:54:00
8:54 PM,55.0,33.1,43,30.16,10.0,SE,13.8,-,N/A,,Overcast,140,2012-11-19 02:54:00
9:54 PM,55.9,32.0,40,30.15,10.0,SE,12.7,-,N/A,,Overcast,140,2012-11-19 03:54:00
10:54 PM,54.0,34.0,47,30.16,10.0,SSE,10.4,-,0.00,Rain,Light Rain,160,2012-11-19 04:54:00
11:54 PM,53.1,37.0,55,30.17,10.0,SSW,8.1,-,0.00,Rain,Light Rain,210,2012-11-19 05:54:00